Regional Weather Roundup
Issued by NWS Lake Charles, LA

Home | Current Version | Previous Version | Text Only | Print | Product List | Glossary On
Versions: 1 2 3 4 5 6 7 8 9 10 11 12 13 14 15 16 17 18 19 20 21 22 23 24 25 26 27 28 29 30 31 32 33 34 35 36 37 38 39 40 41 42 43 44 45 46 47 48 49 50
183
ASUS44 KLCH 281810
RWRLCH
REGIONAL WEATHER ROUNDUP
NATIONAL WEATHER SERVICE LAKE CHARLES LA
100 PM CDT TUE MAR 28 2017

Note: "fair" indicates few or no clouds below 12,000 feet with no
significant weather and/or obstructions to visibility.


ACROSS SOUTHEAST TEXAS

CITY           SKY/WX    TMP DP  RH WIND       PRES   REMARKS
BEAUMONT       PTSUNNY   81  68  64 SE16      29.93F
BEAUMONT CITY  FAIR     N/A N/A N/A SE16G23   29.93F
ORANGE         MOCLDY    80  69  67 S12G21    29.96S
JASPER           N/A     83  67  58 SE9G16    29.94F
$$

ACROSS CENTRAL LOUISIANA

CITY           SKY/WX    TMP DP  RH WIND       PRES   REMARKS
LEESVILLE      MOSUNNY   79 -30   1 SE9       29.95R
FULLERTON      FAIR      84  66  54 VRB5      29.92F
ALEXANDRIA INT MOSUNNY   81  68  64 S9        29.93F
ESLER FIELD    PTSUNNY   82  68  62 S10       29.95F
DERIDDER       FAIR      82  63  51 SE13G18   29.96F
OAKDALE        PTCLDY    82  66  58 SE7       29.96F
OPELOUSAS      FAIR      82  65  55 MISG      29.97F
$$

ACROSS SOUTHWEST AND SOUTH CENTRAL LOUISIANA

CITY           SKY/WX    TMP DP  RH WIND       PRES   REMARKS
SULPHUR        CLEAR     82  69  62 S17       29.96S
LAKE CHARLES   MOSUNNY   83  66  56 S10       29.95F
CHENNAULT INT  MOSUNNY   77  68  73 SE10G18   29.95
CAMERON PHI    PTCLDY    77  72  83 SE16G24   29.95F
DEQUINCY       FAIR      82  65  57 SE9G16    29.94F
JENNINGS       FAIR      82  64  53 S8        29.96F
LAFAYETTE      SUNNY     84  67  56 S9        29.97F
NEW IBERIA     MOSUNNY   82  66  58 SE14      29.98F
ABBEVILLE      MOCLDY    79  72  78 SE14G20   29.99S
PATTERSON      PTSUNNY   81  68  64 SE12      29.99F
SALT POINT       N/A     78  69  73 S8        29.98F
$$

SELECTED SITES ACROSS THE REGION

CITY           SKY/WX    TMP DP  RH WIND       PRES   REMARKS
HOUSTON BUSH   MOSUNNY   82  69  64 SE18G28   29.88F
HOUSTON HOBBY  MOSUNNY   82  67  60 SE15G25   29.88F
GALVESTON      PTSUNNY   80  73  79 SE20      29.90F
COLLEGE STAT   MOSUNNY   83  67  58 SE20G28   29.84F
CONROE         MOSUNNY   83  65  54 S15G26    29.88F
HUNTSVILLE     MOSUNNY   83  63  50 SE8G20    29.87F
LUFKIN         MOSUNNY   82  65  56 SE15      29.90F
SHREVEPORT     MOSUNNY   82  65  56 SE12G18   29.92F
MONROE         MOSUNNY   78  66  66 VRB3      29.97F
NATCHEZ MS     NOT AVBL
BATON ROUGE    MOSUNNY   83  65  54 S9        29.98F
N.O. INTL ARPT MOSUNNY   81  67  62 SE8       30.00F
SLIDELL        PTSUNNY   81  65  58 SW5       30.00F
$$

MARINE REPORTS

STATION/POSITION TIME  SKY/WX   TEMP    WIND        PRES    VSBY
                                AIR SEA DIR/SP/G
                 (UTC)          (F)     (DEG/KT/KT) (MB)    (MI)
BUOY 30 S HIGH I NOT AVBL
SEA RIM ST PARK  1800            75     140/ 15/ 19 1014.1F
PORT ARTHUR      1748               73  140/ 11/ 17 1014.1F
SABINE PASS N    1748            74 76  140/ 18/ 21 1015.2F
TEXAS POINT      NOT AVBL
CALCASIEU PASS   1748            74 75  160/ 17/ 21   N/A
LK CHARLES BEACH 1748            82 71              1014.5F
MARSH ISLAND     1700            73                   N/A
FRESH WATER LOCK 1748            75 76  130/ 11/ 15 1015.2F
AMERADA PASS     1748            77 64  170/  6/ 11 1015.6F
$$




USA.gov is the U.S. government's official web portal to all federal, state and local government web resources and services.